Location: The C. Gantt Observatory
(33.6981°N, 81.6836°W)
Time: 21:13:09
(UTC-04:00)

Iridium 30 - Visible Passes

Search period start: 22 May 2015 00:00
Search period end: 01 June 2015 00:00
Orbit: 776 x 779 km, 86.4° (Epoch: 22 May)

Date Brightness Start Highest point End Pass type
(mag) Time Alt. Az. Time Alt. Az. Time Alt. Az.
22 May 7.2 01:36:57 30° NNE 01:36:57 30° NNE 01:39:37 10° N visible
22 May 8.0 03:17:25 11° NW 03:17:25 11° NW 03:17:44 10° NW visible
23 May 7.6 01:03:28 21° NE 01:03:28 21° NE 01:05:38 10° NNE visible
23 May 7.5 02:43:56 19° NW 02:43:56 19° NW 02:45:59 10° NNW visible
24 May 8.0 00:29:59 13° NE 00:29:59 13° NE 00:30:53 10° NE visible
24 May 7.2 02:10:27 28° NNW 02:10:27 28° NNW 02:13:08 10° N visible
25 May 7.0 01:36:58 33° N 01:36:58 33° N 01:39:48 10° N visible
26 May 7.2 01:03:28 27° NNE 01:03:28 27° NNE 01:06:04 10° NNE visible
26 May 7.8 02:43:56 14° NW 02:43:56 14° NW 02:45:16 10° NW visible
27 May 7.6 00:29:57 18° NE 00:29:57 18° NE 00:31:51 10° NNE visible
27 May 7.4 02:10:25 23° NW 02:10:25 23° NW 02:12:54 10° NNW visible
28 May 7.0 01:36:54 33° NNW 01:36:54 33° NNW 01:39:50 10° N visible
29 May 6.9 01:03:23 34° NNE 01:03:23 34° NNE 01:06:21 10° N visible
30 May 7.3 00:29:52 25° NE 00:29:52 25° NE 00:32:26 10° NNE visible
30 May 7.6 02:10:20 18° NW 02:10:20 18° NW 02:12:26 10° NNW visible
30 May 7.7 23:56:20 15° NE 23:56:20 15° NE 23:57:54 10° NE visible
31 May 7.1 01:36:47 29° NW 01:36:47 29° NW 01:39:43 10° NNW visible
